User: anonymous   Login
Location: B?jaj?g
(11.7167°N, 92.6667°E)
Time: 22:36:16
(UTC+00:00)
Language:

Meteor 1-23 Rocket - Orbit

View from above orbital plane
View from above orbital plane
View from above satellite
View from above satellite

Ground track
Ground track

The orbit data is extracted from the following two-line orbital elements,

1  8520U 75124B   24051.23596627  .00000295  00000-0  16204-3 0  9998
2  8520  81.2911 329.9209 0028572 272.7761  87.0139 14.09175480474674
Epoch (UTC): 20 February 2024 05:39:47
Eccentricity: 0.0028572
inclination: 81.2911°
perigee height: 841 km
apogee height: 883 km
right ascension of ascending node: 329.9209°
argument of perigee: 272.7761°
revolutions per day: 14.09175480
mean anomaly at epoch: 87.0139°
orbit number at epoch: 47467

The dashed part of the orbit path shows where the satellite is in the earth's shadow,  

DLR